Regional Weather Roundup
Issued by NWS

Home | Current Version | Previous Version | Graphics & Text | Print | Product List | Glossary On
Versions: 1 2 3 4 5 6 7 8 9 10 11 12 13 14 15 16 17 18 19 20 21 22 23 24 25 26 27 28 29 30 31 32 33 34 35 36 37 38 39 40 41 42 43 44 45 46 47 48 49 50
000
ASUS43 KDMX 300707
RWRIA

WEATHER ROUNDUP FOR IOWA
NATIONAL WEATHER SERVICE DES MOINES IA
200 AM CDT WED JUL 30 2014

NOTE: "FAIR" INDICATES FEW OR NO CLOUDS BELOW 12,000 FEET WITH NO
SIGNIFICANT WEATHER AND/OR OBSTRUCTIONS TO VISIBILITY.

* - THESE STATIONS ARE NOT NWS STATIONS...THUS NOT UNDER NWS
QUALITY CONTROL.  THEY ALSO DO NOT REPORT WEATHER SUCH
AS PRECIPITATION OR FOG.

IAZ001>003-012>014-020>022-031>034-043>046-300800-
   NORTHWEST IOWA

CITY           SKY/WX    TMP DP  RH WIND       PRES   REMARKS
CARROLL *      PTCLDY    54  52  94 W6        30.13S
CHEROKEE *     PTCLDY    54  54 100 CALM      30.14S
DENISON *      CLEAR     54  54 100 CALM      30.12F
LE MARS *      CLEAR     54  52  94 CALM      30.15S
ORANGE CITY *  CLEAR     57  52  82 CALM      30.15S
SHELDON *      CLEAR     52  50  93 CALM      30.13S
SIOUX CITY     CLEAR     55  53  93 CALM      30.14S
SPENCER        CLEAR     53  52  96 NW3       30.13S
STORM LAKE *   CLEAR     57  55  94 W8        30.15R
$$

IAZ055>058-069>071-079>083-090>094-300800-
   SOUTHWEST IOWA

CITY           SKY/WX    TMP DP  RH WIND       PRES   REMARKS
ATLANTIC *     CLEAR     54  54 100 CALM      30.13F
AUDUBON *      CLEAR     54  50  87 CALM      30.15S
CLARINDA *     CLEAR     54  52  94 N3        30.14F FOG
COUNCIL BLFS *   N/A     61  59  94 NE5       30.13S
CRESTON *      CLEAR     57  54  88 NW5       30.13S
HARLAN  *      CLEAR     54  52  94 CALM      30.17F FOG
LAMONI         CLEAR     58  54  86 NW5       30.12S
RED OAK *      CLEAR     55  54  94 CALM      30.13F
SHENANDOAH *   CLEAR     55  55 100 CALM      30.13F FOG
$$

IAZ047>049-059>061-072>074-084-300800-
   CENTRAL IOWA

CITY           SKY/WX    TMP DP  RH WIND       PRES   REMARKS
AMES           CLEAR     56  54  93 W3        30.10S
ANKENY *       CLEAR     55  55 100 CALM      30.10F
CHARITON *     CLEAR     59  55  88 W5        30.11S
DES MOINES     CLEAR     62  56  80 CALM      30.10S
GRINNELL*      CLEAR     57  55  94 W5        30.10S
KNOXVILLE *    CLEAR     59  54  82 W7        30.09S
MARSHALLTOWN   CLEAR     56  55  97 W3        30.08F
PELLA *        CLEAR     59  55  88 NW3       30.10F
PERRY *          N/A     55  55 100 W6        30.11S
$$

IAZ004>006-015-016-023>025-035-036-300800-
   NORTH CENTRAL IOWA

CITY           SKY/WX    TMP DP  RH WIND       PRES   REMARKS
ALGONA *       CLEAR     57  55  94 W7        30.12S
CLARION *      CLEAR     54  54 100 CALM      30.10S
ESTHERVILLE    CLEAR     55  53  93 W7        30.12S
FORT DODGE *   PTCLDY    55  54  94 CALM      30.12S
MASON CITY     CLEAR     57  54  89 W7        30.10F
FOREST CITY *  CLEAR     55  54  94 SE5       30.10S
IOWA FALLS *     N/A     57  54  88 W5        30.10F
$$

IAZ007>011-017>019-026>030-037>042-050>054-066-300800-
   NORTHEAST IOWA

CITY           SKY/WX    TMP DP  RH WIND       PRES   REMARKS
CEDAR RAPIDS   CLEAR     58  51  78 NW6       30.06S
CHARLES CITY * CLEAR     57  55  94 NW3       30.08F
CLINTON *      CLEAR     55  54  94 W3        30.07F
DECORAH *      PTCLDY    59  59 100 CALM      30.06F
DUBUQUE        CLEAR     57  55  93 CALM      30.05F
MONTICELLO *   CLEAR     57  57 100 CALM      30.05F
OELWEIN *      CLEAR     59  55  88 N5        30.07F
WATERLOO       CLEAR     57  54  89 NW3       30.06F
$$

IAZ064-065-067-068-078-300800-
   EAST CENTRAL IOWA

CITY           SKY/WX    TMP DP  RH WIND       PRES   REMARKS
DAVENPORT      CLEAR     57  54  89 W6        30.06S
IOWA CITY      CLEAR     61  58  90 CALM      30.08S
MT. PLEASANT * CLEAR     59  57  94 SW5       30.08S
MUSCATINE *    CLEAR     63  57  82 W7        30.06S
QUAD CITIES    CLEAR     61  57  87 CALM      30.05F
$$

IAZ062-063-075>077-085>089-095>099-300800-
   SOUTHEAST IOWA

CITY           SKY/WX    TMP DP  RH WIND       PRES   REMARKS
BURLINGTON     CLEAR     61  57  87 W5        30.07F
FAIRFIELD *    CLEAR     59  57  94 W6        30.09S
FORT MADISON * CLEAR     63  59  88 W3        30.08F
KEOKUK *       CLEAR     61  59  94 W3        30.07F
OSKALOOSA *      N/A     59  57  94 CALM      30.09S
CENTERVILLE *  CLEAR     57  55  94 W5        30.12S
OTTUMWA        CLEAR     58  57  97 W3        30.08F
WASHINGTON *   CLEAR     59  57  94 W7        30.07F
$$

ABBREVIATIONS USED IN REMARKS
   TC - TEMPERATURES IN CELSIUS
  WCI - WIND CHILL INDEX
   HX - HEAT INDEX
  VSB - VISIBILITY
$$




USA.gov is the U.S. government's official web portal to all federal, state and local government web resources and services.